This demonstration page uses our WeatherBlox Daily Observations layout. Learn more.

Left ArrowRight Arrow

44.8408, -93.29828

Hourly Observations for September 11, 2021

Temp ( °F °C ) Dew Point ( °F °C ) Humidity (%) Winds ( mph kmh ) Pressure ( in mb ) Visibility ( mi km ) Precip ( " mm )
12:53 am 00:53 Mostly Clear 71 21.7 60 15.6 68 68 SW 6 9 29.83 1010 10 16 0.00 0.00
1:53 am 01:53 Mostly Clear 70 21.1 60 15.6 71 71 SSW 6 9 29.81 1010 10 16 0.00 0.00
2:53 am 02:53 Mostly Clear 68 20 60 15.6 76 76 SSW 3 6 29.80 1009 10 16 0.00 0.00
3:53 am 03:53 Mostly Clear 67 19.4 61 16.1 81 81 SSW 5 7 29.80 1009 10 16 0.00 0.00
4:53 am 04:53 Mostly Clear 67 19.4 61 16.1 81 81 SW 3 6 29.80 1009 10 16 0.00 0.00
5:53 am 05:53 Partly Cloudy 66 18.9 61 16.1 84 84 SSW 3 6 29.80 1009 10 16 0.00 0.00
6:53 am 06:53 Partly Cloudy 66 18.9 61 16.1 84 84 SW 5 7 29.80 1009 10 16 0.00 0.00
7:53 am 07:53 Partly Cloudy 67 19.4 62 16.7 84 84 SW 8 13 29.82 1010 10 16 0.00 0.00
8:53 am 08:53 Partly Cloudy 69 20.6 63 17.2 81 81 W 6 9 29.82 1010 10 16 0.00 0.00
9:53 am 09:53 Partly Cloudy 72 22.2 63 17.2 73 73 NW 9 15 29.84 1011 10 16 0.00 0.00
10:53 am 10:53 Mostly Cloudy 73 22.8 63 17.2 71 71 N 9 15 29.86 1011 10 16 0.00 0.00
11:53 am 11:53 Mostly Cloudy 75 23.9 62 16.7 64 64 N 12 19 29.87 1012 10 16 0.00 0.00
12:53 pm 12:53 Partly Cloudy 74 23.3 60 15.6 62 62 NE 12 19 29.87 1012 10 16 0.00 0.00
1:53 pm 13:53 Partly Cloudy 76 24.4 59 15 56 56 ENE 5 7 29.87 1012 10 16 0.00 0.00
2:53 pm 14:53 Partly Cloudy 78 25.6 56 13.3 47 47 NNE 6 9 29.86 1011 10 16 0.00 0.00
3:53 pm 15:53 Partly Cloudy 78 25.6 53 11.7 42 42 NE 8 13 29.85 1011 10 16 0.00 0.00
4:53 pm 16:53 Partly Cloudy 78 25.6 52 11.1 40 40 NNE 9 15 29.85 1011 10 16 0.00 0.00
5:53 pm 17:53 Partly Cloudy 75 23.9 51 10.6 43 43 NNE 8 13 29.87 1012 10 16 0.00 0.00
6:53 pm 18:53 Mostly Cloudy 74 23.3 53 11.7 48 48 ENE 9 15 29.85 1011 10 16 0.00 0.00
7:53 pm 19:53 Mostly Cloudy 71 21.7 53 11.7 53 53 NNE 8 13 29.87 1012 10 16 0.00 0.00
8:53 pm 20:53 Mostly Cloudy 70 21.1 52 11.1 53 53 NNE 8 13 29.89 1012 10 16 0.00 0.00
9:53 pm 21:53 Mostly Cloudy 69 20.6 51 10.6 53 53 N 8 13 29.91 1013 10 16 0.00 0.00
10:53 pm 22:53 Partly Cloudy 67 19.4 50 10 55 55 N 9 15 29.93 1013 10 16 0.00 0.00
11:53 pm 23:53 Partly Cloudy 65 18.3 48 8.9 54 54 N 10 17 29.94 1014 10 16 0.00 0.00

Powered by AerisWeather